FW3885 Wellfleet MA US current weather conditions

sailwx.info

Wind from 223 at 3 knots gusting 7

Air temperature 1.7° C
Dewpoint -5.0° C

Last reported at 2019-Dec-08 15:04 UTC.
Time now 2019-Dec-08 15:22 UTC

Location: N 41°57' W 069°59'.
View on Google Maps.

See reports from other nearby stations

  
Tides and Currents Weather Stations Pressure Air Temp Water Temp Dewpoint Dewpoint Depression Visibility Wind Speed Wind Dir Waves Ship Positions
date/time (UTC)wind fromknots sea level pressurealtimeterstation pressurevisibilityair tempwater tempwave heightnotes
2019-Dec-08 15:04 223 3 gusting 7 1.7
2019-Dec-08 14:59 219 7 gusting 9 1.7
2019-Dec-08 14:54 235 6 gusting 7 2.2
2019-Dec-08 14:49 213 4 gusting 7 1.7
2019-Dec-08 14:43 221 6 gusting 8 1.7
2019-Dec-08 14:38 201 4 gusting 7 1.7
2019-Dec-08 14:32 287 5 gusting 8 1.1
2019-Dec-08 14:27 277 4 gusting 8 1.1
2019-Dec-08 14:22 313 2 gusting 6 1.1
2019-Dec-08 14:17 273 4 gusting 7 0.6
2019-Dec-08 14:12 285 3 gusting 8 1.1
2019-Dec-08 14:07 267 3 gusting 6 1.7
2019-Dec-08 14:02 269 0 gusting 5 1.1
2019-Dec-08 13:57 245 0.6
2019-Dec-08 13:52 255 3 gusting 5 1.1
2019-Dec-08 13:47 251 2 gusting 4 0.6
2019-Dec-08 13:41 247 2 gusting 4 0.6
2019-Dec-08 13:35 255 3 gusting 4 -0.0
2019-Dec-08 13:30 261 1 gusting 3 -0.6
2019-Dec-08 13:25 275 2 gusting 5 -0.6
2019-Dec-08 13:18 281 3 gusting 4 -1.1
2019-Dec-08 13:13 283 2 gusting 4 -1.1
2019-Dec-08 13:08 289 2 gusting 4 -1.1
2019-Dec-08 13:03 297 3 gusting 5 -1.7
2019-Dec-08 12:58 281 4 gusting 6 -1.7
2019-Dec-08 12:52 293 4 gusting 5 -2.2
2019-Dec-08 12:47 295 5 gusting 5 -2.2
2019-Dec-08 12:42 297 4 gusting 5 -2.8
2019-Dec-08 12:37 287 4 gusting 5 -2.8
2019-Dec-08 12:32 289 4 gusting 6 -3.3
2019-Dec-08 12:27 283 5 gusting 6 -3.3
2019-Dec-08 12:22 277 5 gusting 6 -3.3
2019-Dec-08 12:17 273 6 gusting 7 -3.3
2019-Dec-08 12:12 283 6 gusting 7 -3.9
2019-Dec-08 12:07 283 6 gusting 7 -3.9
2019-Dec-08 12:02 283 6 gusting 6 -3.9
2019-Dec-08 11:57 277 6 gusting 7 -3.9
2019-Dec-08 11:52 281 6 gusting 8 -3.9
2019-Dec-08 11:47 283 6 gusting 7 -4.4
2019-Dec-08 11:42 277 6 gusting 7 -3.9
2019-Dec-08 11:37 273 6 gusting 6 -3.9
2019-Dec-08 11:32 267 6 gusting 6 -3.9
2019-Dec-08 11:27 267 6 gusting 7 -3.9
2019-Dec-08 11:22 281 6 gusting 7 -3.9
2019-Dec-08 11:17 275 6 gusting 7 -3.9
2019-Dec-08 11:12 273 5 gusting 6 -3.9
2019-Dec-08 11:07 271 5 gusting 6 -3.3
2019-Dec-08 11:02 283 6 gusting 6 -3.3
2019-Dec-08 10:57 293 6 gusting 6 -3.9
2019-Dec-08 10:52 293 5 gusting 6 -3.9
2019-Dec-08 10:47 277 6 gusting 6 -3.9
2019-Dec-08 10:42 281 5 gusting 5 -3.9
2019-Dec-08 10:37 289 3 gusting 6 -3.9
2019-Dec-08 10:32 283 6 gusting 7 -3.9
2019-Dec-08 10:27 289 6 gusting 7 -3.9
2019-Dec-08 10:22 291 6 gusting 6 -3.9
2019-Dec-08 10:17 289 6 gusting 6 -3.9
2019-Dec-08 10:12 283 5 gusting 6 -3.9
2019-Dec-08 10:07 271 5 gusting 6 -3.3
2019-Dec-08 10:02 287 5 gusting 7 -3.3
2019-Dec-08 09:57 287 6 gusting 8 -3.3
2019-Dec-08 09:52 295 6 gusting 7 -3.3
2019-Dec-08 09:47 297 6 gusting 9 -3.3
2019-Dec-08 09:41 295 6 gusting 9 -3.3
2019-Dec-08 09:36 291 6 gusting 7 -3.3
2019-Dec-08 09:31 297 6 gusting 6 -3.3
2019-Dec-08 09:26 301 5 gusting 8 -3.3
2019-Dec-08 09:21 289 6 gusting 8 -3.3
2019-Dec-08 09:16 295 6 gusting 10 -3.3
2019-Dec-08 09:11 297 6 gusting 8 -3.3
2019-Dec-08 09:06 303 6 gusting 7 -3.3
2019-Dec-08 09:01 289 5 gusting 7 -3.3
2019-Dec-08 08:56 285 6 gusting 8 -3.3
2019-Dec-08 08:51 287 6 gusting 7 -3.3
2019-Dec-08 08:46 299 6 gusting 8 -2.8
2019-Dec-08 08:41 299 6 gusting 8 -3.3
2019-Dec-08 08:36 293 6 gusting 8 -3.3
2019-Dec-08 08:31 293 6 gusting 10 -2.8
2019-Dec-08 08:26 289 6 gusting 9 -2.8
2019-Dec-08 08:21 289 7 gusting 11 -2.8
2019-Dec-08 08:16 293 6 gusting 7 -2.8
2019-Dec-08 08:11 291 6 gusting 9 -2.8
2019-Dec-08 08:06 293 6 gusting 9 -2.8
2019-Dec-08 08:01 285 6 gusting 9 -2.8
2019-Dec-08 07:56 297 6 gusting 7 -2.8
2019-Dec-08 07:51 305 6 gusting 10 -2.8
2019-Dec-08 07:46 289 6 gusting 9 -2.8
2019-Dec-08 07:41 295 6 gusting 11 -2.8
2019-Dec-08 07:36 289 8 gusting 12 -2.8
2019-Dec-08 07:31 295 6 gusting 10 -2.8
2019-Dec-08 07:26 309 6 gusting 10 -2.8
2019-Dec-08 07:20 293 6 gusting 10 -2.8
2019-Dec-08 07:13 303 6 gusting 8 -2.8
2019-Dec-08 07:08 311 6 gusting 9 -2.8
2019-Dec-08 07:03 311 7 gusting 10 -2.8
2019-Dec-08 06:58 293 8 gusting 10 -2.8
2019-Dec-08 06:53 293 5 gusting 8 -2.8
2019-Dec-08 06:48 293 6 gusting 10 -2.8
2019-Dec-08 06:43 293 7 gusting 10 -2.2
2019-Dec-08 06:38 313 6 gusting 8 -2.2
2019-Dec-08 06:33 309 6 gusting 12 -2.2
2019-Dec-08 06:28 285 7 gusting 10 -2.2
2019-Dec-08 06:23 309 6 gusting 9 -2.2
2019-Dec-08 06:18 303 6 gusting 10 -2.2
2019-Dec-08 06:13 303 8 gusting 11 -2.2
2019-Dec-08 06:08 305 7 gusting 9 -2.2
2019-Dec-08 06:02 285 7 gusting 9 -2.2
2019-Dec-08 05:57 297 6 gusting 12 -2.2
2019-Dec-08 05:52 283 6 gusting 11 -2.2
2019-Dec-08 05:47 307 9 gusting 12 -2.2
2019-Dec-08 05:42 319 7 gusting 13 -2.2
2019-Dec-08 05:36 315 7 gusting 14 -2.2
2019-Dec-08 05:31 313 7 gusting 13 -2.2
2019-Dec-08 05:26 311 6 gusting 13 -2.2
2019-Dec-08 05:21 311 8 gusting 16 -2.2
2019-Dec-08 05:16 319 7 gusting 15 -2.2
2019-Dec-08 05:11 301 8 gusting 15 -2.2
2019-Dec-08 05:06 309 8 gusting 12 -2.2
2019-Dec-08 05:01 299 7 gusting 13 -2.2
2019-Dec-08 04:56 311 7 gusting 14 -2.2
2019-Dec-08 04:51 323 8 gusting 13 -1.7
2019-Dec-08 04:46 315 8 gusting 13 -1.7
2019-Dec-08 04:41 319 7 gusting 14 -2.2
2019-Dec-08 04:36 299 6 gusting 12 -1.7
2019-Dec-08 04:31 309 7 gusting 16 -1.7
2019-Dec-08 04:26 311 8 gusting 13 -1.7
2019-Dec-08 04:21 299 8 gusting 12 -1.7
2019-Dec-08 04:16 293 6 gusting 12 -1.7
2019-Dec-08 04:11 303 6 gusting 17 -1.7
2019-Dec-08 04:05 311 10 gusting 16 -1.7
2019-Dec-08 04:00 323 9 gusting 14 -1.7
2019-Dec-08 03:55 313 7 gusting 13 -1.7
2019-Dec-08 03:50 311 8 gusting 14 -1.7
2019-Dec-08 03:45 307 7 gusting 17 -1.7
2019-Dec-08 03:40 305 11 gusting 19 -1.7
2019-Dec-08 03:35 333 9 gusting 15 -1.7
2019-Dec-08 03:30 319 9 gusting 18 -1.7
2019-Dec-08 03:25 315 10 gusting 19 -1.7
2019-Dec-08 03:20 299 9 gusting 16 -1.7
2019-Dec-08 03:15 313 9 gusting 14 -1.7
2019-Dec-08 03:10 313 8 gusting 16 -1.7
2019-Dec-08 03:05 323 7 gusting 13 -1.7
2019-Dec-08 03:00 321 8 gusting 15 -1.7
2019-Dec-08 02:55 309 8 gusting 14 -1.7
2019-Dec-08 02:49 323 8 gusting 15 -1.7
2019-Dec-08 02:44 319 6 gusting 14 -1.1
2019-Dec-08 02:39 315 8 gusting 15 -1.1
2019-Dec-08 02:34 321 11 gusting 14 -1.1
2019-Dec-08 02:29 305 8 gusting 19 -1.1
2019-Dec-08 02:24 311 10 gusting 19 -1.1
2019-Dec-08 02:19 283 7 gusting 14 -1.1
2019-Dec-08 02:14 321 8 gusting 18 -1.1
2019-Dec-08 02:09 317 7 gusting 17 -1.1
2019-Dec-08 02:04 335 6 gusting 17 -0.6
2019-Dec-08 01:59 309 8 gusting 17 -0.6
2019-Dec-08 01:54 303 11 gusting 17 -0.6
2019-Dec-08 01:49 317 10 gusting 12 -0.6
2019-Dec-08 01:44 305 8 gusting 12 -0.6
2019-Dec-08 01:39 315 6 gusting 16 -0.6
2019-Dec-08 01:34 323 9 gusting 19 -0.6
2019-Dec-08 01:29 299 7 gusting 13 -0.6
2019-Dec-08 01:24 309 7 gusting 17 -0.6
2019-Dec-08 01:19 283 7 gusting 16 -0.6
2019-Dec-08 01:14 297 7 gusting 17 -0.6
2019-Dec-08 01:09 315 8 gusting 16 -0.6
2019-Dec-08 01:04 333 10 gusting 17 -0.6
2019-Dec-08 00:59 323 11 gusting 16 -0.6
2019-Dec-08 00:54 317 8 gusting 13 -0.6
2019-Dec-08 00:49 323 7 gusting 14 -0.6
2019-Dec-08 00:44 329 9 gusting 15 -0.6
2019-Dec-08 00:39 333 8 gusting 18 -0.6
2019-Dec-08 00:34 303 9 gusting 22 -0.0
2019-Dec-08 00:29 315 7 gusting 18 -0.0
2019-Dec-08 00:24 337 9 gusting 18 -0.0
2019-Dec-08 00:19 329 8 gusting 17 -0.0
2019-Dec-08 00:14 331 12 gusting 17 -0.0
2019-Dec-08 00:09 301 6 gusting 18 -0.0
2019-Dec-07 23:57 305 8 gusting 13 -0.0
2019-Dec-07 23:52 303 7 gusting 17 -0.0
2019-Dec-07 23:47 333 6 gusting 11 -0.0
2019-Dec-07 23:41 303 6 gusting 19 -0.0
2019-Dec-07 23:36 315 11 gusting 19 -0.0
2019-Dec-07 23:31 305 7 gusting 20 -0.0
2019-Dec-07 23:26 285 10 gusting 17 -0.0
2019-Dec-07 23:21 301 8 gusting 13 -0.0
2019-Dec-07 23:15 309 9 gusting 17 -0.0
2019-Dec-07 23:10 303 7 gusting 14 -0.0
2019-Dec-07 23:05 303 6 gusting 8 -0.0
2019-Dec-07 23:00 337 5 gusting 7 -0.0
2019-Dec-07 22:55 309 5 gusting 7 -0.0
2019-Dec-07 22:50 335 6 gusting 7 -0.0
2019-Dec-07 22:44 311 4 gusting 9 -0.6
2019-Dec-07 22:39 319 6 gusting 10 -0.6
2019-Dec-07 22:34 297 4 gusting 7 -0.6
2019-Dec-07 22:29 303 4 gusting 6 -0.6
2019-Dec-07 22:24 307 5 gusting 6 -0.6
2019-Dec-07 22:19 301 5 gusting 6 -0.6
2019-Dec-07 22:13 309 3 gusting 6 -0.6
2019-Dec-07 22:08 307 4 gusting 6 -0.6
2019-Dec-07 22:02 307 5 gusting 6 -0.6
2019-Dec-07 21:57 323 6 gusting 7 -0.6
2019-Dec-07 21:52 315 4 gusting 6 -1.1
2019-Dec-07 21:47 307 2 gusting 6 -1.1
2019-Dec-07 21:42 319 4 gusting 5 -1.1
2019-Dec-07 21:37 303 4 gusting 6 -1.1
2019-Dec-07 21:32 301 4 gusting 6 -1.1
2019-Dec-07 21:27 301 5 gusting 6 -1.1
2019-Dec-07 21:21 303 5 gusting 7 -1.1
2019-Dec-07 21:16 311 4 gusting 8 -1.1
2019-Dec-07 21:11 321 6 gusting 9 -1.1
2019-Dec-07 21:06 327 6 gusting 10 -1.1
2019-Dec-07 21:01 319 7 gusting 13 -1.1
2019-Dec-07 20:56 329 5 gusting 11 -1.1
2019-Dec-07 20:51 313 6 gusting 12 -0.6
2019-Dec-07 20:46 303 6 gusting 13 -0.6
2019-Dec-07 20:41 317 9 gusting 17 -0.6
2019-Dec-07 20:36 315 6 gusting 10 -0.6
2019-Dec-07 20:31 313 7 gusting 10 -0.6
2019-Dec-07 20:26 307 6 gusting 13 -0.6
2019-Dec-07 20:20 311 8 gusting 19 -0.6
2019-Dec-07 20:15 339 9 gusting 14 -0.6
2019-Dec-07 20:10 313 7 gusting 14 -0.6
2019-Dec-07 20:04 315 7 gusting 13 -0.0
2019-Dec-07 19:59 317 5 gusting 7 -0.0
2019-Dec-07 19:54 321 6 gusting 13 -0.0
2019-Dec-07 19:49 319 9 gusting 17 -0.0
2019-Dec-07 19:44 319 5 gusting 10 0.6
2019-Dec-07 19:39 339 9 gusting 15 -0.0
2019-Dec-07 19:34 303 11 gusting 15 -0.0
2019-Dec-07 19:29 321 7 gusting 14 -0.0
2019-Dec-07 19:23 339 6 gusting 15 -0.0
2019-Dec-07 19:18 301 8 gusting 17 -0.0
2019-Dec-07 19:13 329 7 gusting 12 0.6
2019-Dec-07 19:08 301 6 gusting 13 0.6
2019-Dec-07 19:03 307 6 gusting 16 0.6
2019-Dec-07 18:56 307 8 gusting 13 0.6
2019-Dec-07 18:51 333 8 gusting 17 0.6
2019-Dec-07 18:46 309 6 gusting 13 0.6
2019-Dec-07 18:41 323 11 gusting 17 0.6
2019-Dec-07 18:36 297 7 gusting 16 0.6
2019-Dec-07 18:31 301 6 gusting 14 0.6
2019-Dec-07 18:26 283 8 gusting 17 0.6
2019-Dec-07 18:21 291 6 gusting 13 0.6
2019-Dec-07 18:16 311 6 gusting 16 0.6
2019-Dec-07 18:11 293 9 gusting 15 0.6
2019-Dec-07 18:06 311 7 gusting 14 1.1
2019-Dec-07 18:01 325 6 gusting 13 0.6
2019-Dec-07 17:56 297 8 gusting 15 0.6
2019-Dec-07 17:51 311 6 gusting 12 1.1
2019-Dec-07 17:46 299 6 gusting 13 1.1
2019-Dec-07 17:41 313 7 gusting 14 1.1
2019-Dec-07 17:36 299 8 gusting 14 0.6
2019-Dec-07 17:31 305 8 gusting 14 0.6
2019-Dec-07 17:26 307 9 gusting 13 1.1
2019-Dec-07 17:21 327 11 gusting 16 1.1
2019-Dec-07 17:14 313 7 gusting 11 0.6
2019-Dec-07 17:09 333 7 gusting 13 0.6
2019-Dec-07 17:04 301 7 gusting 14 1.1
2019-Dec-07 16:59 339 6 gusting 14 1.1
2019-Dec-07 16:54 337 9 gusting 14 0.6
2019-Dec-07 16:48 341 8 gusting 14 1.1
2019-Dec-07 16:43 325 8 gusting 19 0.6
2019-Dec-07 16:38 343 7 gusting 13 0.6
2019-Dec-07 16:33 321 8 gusting 13 0.6
2019-Dec-07 16:28 333 6 gusting 16 0.6
2019-Dec-07 16:23 293 8 gusting 14 0.6
2019-Dec-07 16:18 307 7 gusting 17 1.1
2019-Dec-07 16:13 321 8 gusting 15 1.1
2019-Dec-07 16:07 315 7 gusting 15 0.6
2019-Dec-07 16:02 319 7 gusting 13 0.6
2019-Dec-07 15:57 313 7 gusting 14 0.6
2019-Dec-07 15:51 319 6 gusting 13 0.6
2019-Dec-07 15:46 309 7 gusting 12 0.6
2019-Dec-07 15:41 305 7 gusting 14 0.6
2019-Dec-07 15:35 311 10 gusting 14 0.6
2019-Dec-07 15:30 303 7 gusting 14 0.6
2019-Dec-07 15:24 329 8 gusting 12 0.6
2019-Dec-07 15:18 283 7 gusting 16 1.1
2019-Dec-07 15:12 303 6 gusting 13 1.1
2019-Dec-07 15:07 303 7 gusting 18 1.1
2019-Dec-07 15:02 291 7 gusting 14 1.1
2019-Dec-07 14:57 335 7 gusting 13 0.6
2019-Dec-07 14:52 303 10 gusting 14 0.6
2019-Dec-07 14:47 325 8 gusting 14 0.6
2019-Dec-07 14:42 327 8 gusting 14 -0.0
2019-Dec-07 14:37 345 9 gusting 17 0.6
2019-Dec-07 14:32 323 8 gusting 18 -0.0
2019-Dec-07 14:27 309 11 gusting 17 -0.0
2019-Dec-07 14:22 303 10 gusting 15 0.6
2019-Dec-07 14:17 311 6 gusting 13 0.6
2019-Dec-07 14:12 317 9 gusting 16 -0.0
2019-Dec-07 14:07 321 11 gusting 16 -0.0
2019-Dec-07 14:02 323 11 gusting 17 -0.0
2019-Dec-07 13:56 327 8 gusting 10 -0.0
2019-Dec-07 13:51 311 8 gusting 19 -0.0
2019-Dec-07 13:46 325 7 gusting 13 -0.0
2019-Dec-07 13:41 309 6 gusting 15 -0.6
2019-Dec-07 13:36 317 7 gusting 12 -0.6
2019-Dec-07 13:31 313 8 gusting 12 -0.6
2019-Dec-07 13:26 313 6 gusting 13 -1.1
2019-Dec-07 13:21 319 9 gusting 13 -1.1
2019-Dec-07 13:16 303 7 gusting 14 -1.1
2019-Dec-07 13:11 317 6 gusting 15 -1.1
2019-Dec-07 13:06 323 8 gusting 13 -1.1
2019-Dec-07 13:01 309 7 gusting 13 -1.1
2019-Dec-07 12:55 293 6 gusting 11 -1.7
2019-Dec-07 12:50 319 8 gusting 15 -1.7
2019-Dec-07 12:45 293 10 gusting 15 -1.7
2019-Dec-07 12:40 331 8 gusting 13 -1.7
2019-Dec-07 12:35 315 11 gusting 16 -1.7
2019-Dec-07 12:30 321 7 gusting 18 -1.7
2019-Dec-07 12:25 309 8 gusting 15 -1.7
2019-Dec-07 12:20 317 7 gusting 12 -1.7
2019-Dec-07 12:15 315 7 gusting 18 -1.7
2019-Dec-07 12:10 317 10 gusting 15 -1.7
2019-Dec-07 12:05 327 8 gusting 17 -1.7
2019-Dec-07 12:00 323 8 gusting 14 -1.7
2019-Dec-07 11:55 313 9 gusting 17 -1.7
2019-Dec-07 11:50 319 8 gusting 15 -1.7
2019-Dec-07 11:45 327 7 gusting 16 -1.1
2019-Dec-07 11:40 313 9 gusting 17 -1.1
2019-Dec-07 11:35 335 8 gusting 17 -1.1
2019-Dec-07 11:30 303 8 gusting 14 -1.1
2019-Dec-07 11:25 313 6 gusting 15 -1.1
2019-Dec-07 11:20 315 6 gusting 14 -1.1
2019-Dec-07 11:15 299 7 gusting 15 -1.1
2019-Dec-07 11:10 319 8 gusting 13 -1.1
2019-Dec-07 11:04 303 8 gusting 16 -1.1
2019-Dec-07 10:59 311 8 gusting 13 -1.1
2019-Dec-07 10:54 319 11 gusting 18 -1.1
2019-Dec-07 10:49 305 9 gusting 20 -1.1
2019-Dec-07 10:44 323 10 gusting 19 -1.1
2019-Dec-07 10:39 315 9 gusting 19 -1.1
2019-Dec-07 10:34 325 10 gusting 18 -1.1
2019-Dec-07 10:29 315 9 gusting 17 -1.1
2019-Dec-07 10:24 337 8 gusting 17 -1.1
2019-Dec-07 10:19 311 8 gusting 17 -1.1
2019-Dec-07 10:14 329 8 gusting 15 -0.6
2019-Dec-07 10:09 317 8 gusting 15 -0.6
2019-Dec-07 10:04 325 6 gusting 17 -0.6
2019-Dec-07 09:59 305 7 gusting 18 -0.6
2019-Dec-07 09:52 321 11 gusting 19 -0.6
2019-Dec-07 09:45 323 12 gusting 19 -0.6
2019-Dec-07 09:40 317 9 gusting 21 -0.6
2019-Dec-07 09:35 315 9 gusting 17 -0.6
2019-Dec-07 09:30 307 9 gusting 16 -0.6
2019-Dec-07 09:25 305 11 gusting 18 -0.6
2019-Dec-07 09:20 321 13 gusting 21 -0.6
2019-Dec-07 09:15 327 12 gusting 20 -0.6
2019-Dec-07 09:10 333 11 gusting 24 -0.6
2019-Dec-07 09:05 317 11 gusting 18 -0.0
2019-Dec-07 09:00 319 8 gusting 23 -0.0
2019-Dec-07 08:55 321 11 gusting 22 -0.0
2019-Dec-07 08:50 317 8 gusting 21 -0.0
2019-Dec-07 08:45 323 8 gusting 20 -0.0
2019-Dec-07 08:40 321 9 gusting 24 -0.0
2019-Dec-07 08:35 325 12 gusting 19 -0.0
2019-Dec-07 08:30 323 12 gusting 21 0.6
2019-Dec-07 08:25 327 11 gusting 24 0.6
2019-Dec-07 08:20 319 10 gusting 21 0.6
2019-Dec-07 08:15 333 11 gusting 19 0.6
2019-Dec-07 08:10 333 9 gusting 20 0.6
2019-Dec-07 08:04 313 12 gusting 27 0.6
2019-Dec-07 07:59 339 13 gusting 26 0.6
2019-Dec-07 07:54 333 12 gusting 26 0.6
2019-Dec-07 07:49 309 10 gusting 16 0.6
2019-Dec-07 07:44 321 11 gusting 20 0.6
2019-Dec-07 07:38 315 12 gusting 18 1.1
2019-Dec-07 07:33 319 9 gusting 24 1.1
2019-Dec-07 07:28 323 11 gusting 22 1.1
2019-Dec-07 07:23 329 8 gusting 21 1.1
2019-Dec-07 07:18 341 8 gusting 21 1.1
2019-Dec-07 07:13 309 9 gusting 19 1.1
2019-Dec-07 07:08 319 9 gusting 19 1.1
2019-Dec-07 07:03 335 9 gusting 17 1.1
2019-Dec-07 06:58 307 9 gusting 19 1.1
2019-Dec-07 06:53 329 9 gusting 22 1.1
2019-Dec-07 06:48 305 12 gusting 21 1.1
2019-Dec-07 06:43 333 10 gusting 20 1.1
2019-Dec-07 06:38 323 11 gusting 21 1.1
2019-Dec-07 06:33 317 11 gusting 22 1.1
2019-Dec-07 06:28 313 13 gusting 21 1.1
2019-Dec-07 06:23 317 15 gusting 26 1.7
2019-Dec-07 06:18 311 9 gusting 19 1.7
2019-Dec-07 06:13 329 11 gusting 25 1.7
2019-Dec-07 06:08 329 12 gusting 26 1.7
2019-Dec-07 06:03 317 12 gusting 21 1.7
2019-Dec-07 05:57 327 10 gusting 18 1.7
2019-Dec-07 05:52 323 10 gusting 17 1.7
2019-Dec-07 05:47 329 11 gusting 25 1.7
2019-Dec-07 05:42 303 13 gusting 20 1.7
2019-Dec-07 05:37 333 11 gusting 25 1.7
2019-Dec-07 05:32 305 14 gusting 22 1.7
2019-Dec-07 05:27 313 14 gusting 23 1.7
2019-Dec-07 05:21 321 9 gusting 20 2.2
2019-Dec-07 05:16 333 12 gusting 23 2.2
2019-Dec-07 05:11 327 10 gusting 24 2.2
2019-Dec-07 05:06 295 10 gusting 19 2.2
2019-Dec-07 05:01 311 11 gusting 22 2.2
2019-Dec-07 04:56 307 13 gusting 26 2.2
2019-Dec-07 04:51 335 14 gusting 28 2.2
2019-Dec-07 04:46 303 11 gusting 24 2.2
2019-Dec-07 04:41 287 13 gusting 24 2.8
2019-Dec-07 04:36 305 12 gusting 27 2.8
2019-Dec-07 04:31 311 18 gusting 27 2.8
2019-Dec-07 04:26 323 13 gusting 23 2.8
2019-Dec-07 04:21 321 13 gusting 23 2.8
2019-Dec-07 04:16 319 11 gusting 19 3.3
2019-Dec-07 04:11 305 12 gusting 29 3.3
2019-Dec-07 04:06 301 14 gusting 19 3.9
2019-Dec-07 04:01 293 9 gusting 21 3.9
2019-Dec-07 03:56 305 9 gusting 22 3.9
2019-Dec-07 03:51 301 10 gusting 26 3.9
2019-Dec-07 03:46 291 12 gusting 27 4.4
2019-Dec-07 03:41 293 13 gusting 22 4.4
2019-Dec-07 03:36 307 10 gusting 19 4.4
2019-Dec-07 03:31 303 9 gusting 16 4.4
2019-Dec-07 03:26 303 8 gusting 21 5.0
2019-Dec-07 03:21 293 10 gusting 23 5.0
2019-Dec-07 03:16 297 12 gusting 21 5.0
2019-Dec-07 03:11 301 8 gusting 21 5.0
2019-Dec-07 03:06 307 14 gusting 23 5.6
2019-Dec-07 03:01 291 13 gusting 23 5.6
2019-Dec-07 02:56 307 8 gusting 21 5.6
2019-Dec-07 02:51 295 12 gusting 19 5.6
2019-Dec-07 02:46 285 9 gusting 22 5.6
2019-Dec-07 02:41 283 10 gusting 18 5.6
2019-Dec-07 02:33 283 7 gusting 17 5.6
2019-Dec-07 02:28 287 13 gusting 19 6.1
2019-Dec-07 02:22 283 10 gusting 18 6.1
2019-Dec-07 02:17 291 7 gusting 13 6.1
2019-Dec-07 02:12 289 9 gusting 19 6.1
2019-Dec-07 02:07 277 10 gusting 21 6.1
2019-Dec-07 02:02 285 10 gusting 23 6.7
2019-Dec-07 01:57 281 9 gusting 17 6.7
2019-Dec-07 01:52 297 8 gusting 19 6.7
2019-Dec-07 01:47 273 9 gusting 18 6.7
2019-Dec-07 01:42 315 6 gusting 16 6.7
2019-Dec-07 01:37 279 7 gusting 18 6.7
2019-Dec-07 01:32 277 7 gusting 18 7.2
2019-Dec-07 01:26 285 12 gusting 23 7.2
2019-Dec-07 01:21 267 9 gusting 21 7.2
2019-Dec-07 01:16 285 10 gusting 18 7.2
2019-Dec-07 01:11 269 6 gusting 16 7.2
2019-Dec-07 01:06 247 6 gusting 15 7.2
2019-Dec-07 01:01 279 8 gusting 21 7.2
2019-Dec-07 00:56 253 7 gusting 15 6.7
2019-Dec-07 00:51 269 5 gusting 13 6.7
2019-Dec-07 00:46 235 6 gusting 14 6.7
2019-Dec-07 00:41 233 6 gusting 13 6.1
2019-Dec-07 00:36 267 5 gusting 9 6.1
2019-Dec-07 00:31 253 3 gusting 6 5.6
2019-Dec-07 00:26 281 4 gusting 7 5.6
2019-Dec-07 00:21 277 3 gusting 7 5.6
2019-Dec-07 00:16 295 5 gusting 7 5.6
2019-Dec-07 00:10 251 4 gusting 6 5.0
2019-Dec-06 23:59 165 2 gusting 3 4.4
2019-Dec-06 23:52 153 1 gusting 4 4.4
2019-Dec-06 23:47 191 3.9
2019-Dec-06 23:42 157 3.9
2019-Dec-06 23:37 167 3.9
2019-Dec-06 23:32 161 1 gusting 1 3.9
2019-Dec-06 23:27 163 3.9
2019-Dec-06 23:21 165 3.9
2019-Dec-06 23:16 213 1 gusting 3 3.9
2019-Dec-06 23:11 185 3.9
2019-Dec-06 23:06 271 3.9
2019-Dec-06 23:01 249 3.9
2019-Dec-06 22:56 177 2 gusting 4 3.9
2019-Dec-06 22:51 177 0 gusting 4 3.9
2019-Dec-06 22:46 173 4 gusting 6 3.9
2019-Dec-06 22:41 165 5 gusting 9 3.9
2019-Dec-06 22:36 159 6 gusting 10 3.9
2019-Dec-06 22:31 165 6 gusting 8 3.3
2019-Dec-06 22:26 167 7 gusting 10 3.3
2019-Dec-06 22:21 171 6 gusting 8 3.3
2019-Dec-06 22:16 167 6 gusting 8 3.3
2019-Dec-06 22:11 165 6 gusting 8 2.8
2019-Dec-06 22:06 163 6 gusting 8 2.8
2019-Dec-06 22:00 167 5 gusting 6 2.8
2019-Dec-06 21:54 175 4 gusting 6 2.8
2019-Dec-06 21:49 165 4 gusting 5 2.8
2019-Dec-06 21:44 163 2 gusting 4 2.8
2019-Dec-06 21:39 151 1 gusting 1 2.8
2019-Dec-06 21:34 171 2.8
2019-Dec-06 21:29 173 1 gusting 2 2.8
2019-Dec-06 21:24 179 1 gusting 3 2.8
2019-Dec-06 21:19 175 2 gusting 3 2.8
2019-Dec-06 21:14 163 3 gusting 3 2.8
2019-Dec-06 21:09 169 1 gusting 5 2.8
2019-Dec-06 21:04 167 4 gusting 6 2.8
2019-Dec-06 20:59 159 4 gusting 6 2.8
2019-Dec-06 20:54 159 2 gusting 3 2.8
2019-Dec-06 20:49 143 0 gusting 0 2.8
2019-Dec-06 20:44 169 2.8
2019-Dec-06 20:38 167 1 gusting 4 2.8
2019-Dec-06 20:31 161 2 gusting 4 2.8
2019-Dec-06 20:26 169 2 gusting 3 2.8
2019-Dec-06 20:21 149 0 gusting 2 2.8
2019-Dec-06 20:15 181 1 gusting 3 2.8
2019-Dec-06 20:10 181 1 gusting 5 2.8
2019-Dec-06 20:05 207 3 gusting 4 2.8
2019-Dec-06 20:00 195 3 gusting 5 2.8
2019-Dec-06 19:55 205 5 gusting 6 2.8
2019-Dec-06 19:50 193 3 gusting 6 2.8
2019-Dec-06 19:45 207 3 gusting 6 2.8
2019-Dec-06 19:40 217 3 gusting 6 2.8
2019-Dec-06 19:34 249 6 gusting 6 2.8
2019-Dec-06 19:28 239 5 gusting 7 2.8
2019-Dec-06 19:23 189 3 gusting 9 2.8
2019-Dec-06 19:17 233 5 gusting 9 2.8
2019-Dec-06 19:12 241 3 gusting 7 2.8
2019-Dec-06 19:07 249 5 gusting 10 2.8
2019-Dec-06 19:01 225 6 gusting 9 2.8
2019-Dec-06 18:56 265 5 gusting 8 2.8
2019-Dec-06 18:50 259 6 gusting 11 2.8
2019-Dec-06 18:45 255 5 gusting 7 2.8
2019-Dec-06 18:40 273 6 gusting 11 2.8
2019-Dec-06 18:35 259 7 gusting 14 2.8
2019-Dec-06 18:30 245 6 gusting 13 2.8
2019-Dec-06 18:25 257 4 gusting 14 2.8
2019-Dec-06 18:20 285 6 gusting 16 2.2
2019-Dec-06 18:14 275 8 gusting 16 2.2
2019-Dec-06 18:09 253 7 gusting 14 2.2
2019-Dec-06 18:04 251 7 gusting 13 2.2
2019-Dec-06 17:59 269 9 gusting 17 2.8
2019-Dec-06 17:54 267 6 gusting 13 2.8
2019-Dec-06 17:49 281 4 gusting 11 2.8
2019-Dec-06 17:44 247 5 gusting 13 2.2
2019-Dec-06 17:39 257 6 gusting 10 2.2
2019-Dec-06 17:34 247 6 gusting 14 2.2
2019-Dec-06 17:29 233 6 gusting 13 2.2
2019-Dec-06 17:24 247 6 gusting 12 2.2
2019-Dec-06 17:19 207 6 gusting 14 2.2
2019-Dec-06 17:13 245 6 gusting 13 2.8
2019-Dec-06 17:08 269 10 gusting 14 2.8
2019-Dec-06 17:03 259 6 gusting 17 3.3
2019-Dec-06 16:58 263 6 gusting 13 3.3
2019-Dec-06 16:53 273 7 gusting 20 3.3
2019-Dec-06 16:48 269 6 gusting 16 3.3
2019-Dec-06 16:43 277 9 gusting 15 3.3
2019-Dec-06 16:38 249 6 gusting 14 2.8
2019-Dec-06 16:33 285 6 gusting 16 2.8
2019-Dec-06 16:27 253 10 gusting 18 2.8
2019-Dec-06 16:22 255 6 gusting 18 2.8
2019-Dec-06 16:17 263 8 gusting 15 2.8
2019-Dec-06 16:12 271 5 gusting 19 2.8
2019-Dec-06 16:07 231 6 gusting 11 2.8
2019-Dec-06 16:02 285 8 gusting 17 2.8
2019-Dec-06 15:57 273 12 gusting 18 2.8
2019-Dec-06 15:52 227 10 gusting 18 2.8
2019-Dec-06 15:47 275 8 gusting 20 2.2
2019-Dec-06 15:41 261 8 gusting 22 2.2
2019-Dec-06 15:36 269 9 gusting 20 2.2
2019-Dec-06 15:31 277 6 gusting 17 2.2
2019-Dec-06 15:26 273 10 gusting 18 2.2
2019-Dec-06 15:21 293 7 gusting 13 2.8
2019-Dec-06 15:16 299 8 gusting 14 2.2
2019-Dec-06 15:11 261 7 gusting 19 2.2
2019-Dec-06 15:06 277 10 gusting 20 1.7
2019-Dec-06 15:01 281 9 gusting 20 1.7